PDT,Max TemperatureF,Mean TemperatureF,Min TemperatureF,Max Dew PointF,MeanDew PointF,Min DewpointF,Max Humidity, Mean Humidity, Min Humidity, Max Sea Level PressureIn, Mean Sea Level PressureIn, Min Sea Level PressureIn, Max VisibilityMiles, Mean VisibilityMiles, Min VisibilityMiles, Max Wind SpeedMPH, Mean Wind SpeedMPH, Max Gust SpeedMPH,PrecipitationIn, CloudCover, Events, WindDirDegrees
2013-7-1,99,82,65,61,54,51,63,42,21,30.01,29.92,29.88,10,10,10,18,7,23,0.00,0,,304
2013-7-2,102,82,62,60,55,44,78,47,15,30.02,29.98,29.93,10,10,10,22,6,29,0.00,0,,329
2013-7-3,93,75,57,55,49,35,80,51,21,30.04,29.99,29.93,10,10,10,18,7,24,0.00,0,,330
2013-7-4,85,65,45,41,35,28,60,37,14,30.01,29.95,29.88,10,10,10,18,6,30,0.00,0,,343
2013-7-5,80,60,39,41,33,22,79,47,15,29.95,29.91,29.85,10,10,10,18,5,23,0.00,0,,356
2013-7-6,85,62,38,46,30,25,64,38,12,29.92,29.86,29.77,10,10,10,15,6,29,0.00,0,,330
2013-7-7,89,66,42,48,41,35,77,47,17,29.90,29.84,29.77,10,10,10,20,7,29,0.00,0,,318
2013-7-8,88,66,44,46,37,27,86,49,12,30.02,29.97,29.91,10,10,10,14,6,18,0.00,0,,343
2013-7-9,96,72,47,49,41,36,71,42,12,30.07,30.00,29.91,10,10,10,18,7,23,0.00,0,,340
2013-7-10,93,74,54,48,43,35,72,43,14,29.98,29.91,29.82,10,10,10,23,6,30,0.00,0,,318
2013-7-11,84,66,47,43,36,23,61,39,17,29.94,29.90,29.84,10,10,10,20,6,26,0.00,0,,341
2013-7-12,81,61,41,39,29,22,55,34,13,30.04,29.93,29.88,10,10,10,23,8,31,0.00,0,,325
2013-7-13,82,61,39,38,31,20,79,46,12,30.13,30.06,29.99,10,10,10,20,6,24,0.00,1,,335
2013-7-14,91,67,43,41,30,24,46,29,12,30.10,30.01,29.90,10,10,10,17,5,22,0.00,0,,322
2013-7-15,90,70,49,39,35,31,61,37,13,29.96,29.89,29.79,10,10,10,22,9,26,0.00,0,,332
2013-7-16,86,73,60,46,37,33,40,30,19,29.93,29.86,29.81,10,10,10,18,10,25,0.00,0,,320
2013-7-17,91,68,45,41,35,28,65,38,11,30.10,30.02,29.95,10,10,10,18,7,26,0.00,0,,309
2013-7-18,95,73,50,42,35,27,61,36,10,30.14,30.06,29.97,10,10,10,18,6,24,0.00,0,,331
2013-7-19,95,73,50,37,27,19,59,33,7,30.06,30.00,29.91,10,10,10,17,7,22,0.00,0,,332
2013-7-20,96,73,50,37,20,10,59,32,4,29.97,29.92,29.85,10,10,10,18,6,23,0.00,0,,356
2013-7-21,97,71,44,38,20,6,36,20,4,29.90,29.86,29.81,10,10,10,18,6,24,0.00,0,,92
2013-7-22,96,73,50,38,30,17,54,30,6,29.96,29.92,29.88,10,10,10,18,5,22,0.00,0,,68
2013-7-23,98,71,44,42,30,24,53,31,8,30.01,29.95,29.89,10,10,4,16,6,21,0.00,0,,335
2013-7-24,95,75,55,41,31,9,46,26,5,30.01,29.97,29.92,10,10,10,17,5,22,0.00,0,,276
2013-7-25,99,75,51,42,33,25,54,31,8,30.03,30.00,29.95,10,10,10,17,5,23,0.00,0,,313
2013-7-26,97,77,57,27,23,16,30,18,6,30.07,30.02,29.96,10,10,10,21,6,25,0.00,0,,359
2013-7-27,88,68,48,36,28,20,42,25,8,30.08,30.00,29.91,10,10,10,18,6,24,0.00,0,,304
2013-7-28,85,64,42,39,31,21,65,39,12,29.95,29.91,29.85,10,10,10,18,5,23,0.00,0,,324
2013-7-29,85,62,39,43,35,30,79,47,14,29.96,29.90,29.86,10,10,10,16,6,22,0.00,0,,336
2013-7-30,88,66,44,48,35,20,76,42,8,30.07,30.03,29.98,10,10,10,17,6,21,0.00,0,,304
2013-7-31,85,71,56,48,42,29,64,40,15,30.12,30.02,29.93,10,10,8,25,6,33,T,2,Rain,336